Погода в Ярышмардах

Россия / Чеченская Республика     42°58′43″N   45°42′46″E
темп.,
°C
ветер,
м/с
пор.,
м/с
влажн.,
%
обл.,
%
осадки,
мм/ч
давл.,
гПа
погр.,
м
10 апреля, сб
сб1000:00+6ссз1284100 0.0 1018421
03:00+5сз2286100 0.0 1018407
06:00+5ссз118692 0.0 1018314
09:00+7ссз2178100 0.0 1018475
12:00+10ссз3265100 0.0 1017860
15:00+11ссз326291 0.0 1017907
18:00+9ссз3373100 0.0 1018578
21:00+7ссз1281100 0.0 1020353
11 апреля, вс
вс1100:00+7с128495 0.0 1019262
03:00+6в128694 0.0 1020230
06:00+5св1191100 0.0 101828
09:00+10с2273100 0.0 1017593
12:00+12с3268100 0.0 1016831
15:00+13с2164100 0.0 1015782
18:00+11ссз1275100 0.0 101594
21:00+8ююв0085100 0.0 101610
12 апреля, пн
пн1200:00+7юз119054 0.0 101511
03:00+7ююв1190100 0.0 101610
06:00+7св1187100 0.0 101714
09:00+12сз2267100 0.0 1018607
12:00+14с3360100 0.0 10171234
15:00+12ссз2374100 0.5 1019578
18:00+10зсз1288100 0.2 1020105
21:00+10с1293100 0.2 1020159
13 апреля, вт
вт1300:00+9ссз1295100 0.3 1020200
03:00+8сз1295100 0.4 1020150
06:00+8ссв0195100 0.1 1020145
09:00+9с118899 0.1 1020305
12:00+10с2283100 0.1 1020736
15:00+10ссз1286100 0.4 1020549
18:00+9ссз1193100 0.6 102191
21:00+8сз1298100 1.7 1021172
14 апреля, ср
ср1400:00+8сз1399100 1.9 1020203
03:00+7св0197100 3.3 101978
06:00+7ссв0191100 0.0 101963
09:00+10с217699 0.1 1018744
12:00+11с217096 0.1 1017953
15:00+12ссв1268100 0.2 1017976
18:00+10ссз1180100 0.1 101873
21:00+9ю1282100 0.1 101943